SCP
1 1 2 2 2 1 0 0 0 0 0 0 0 0 0 1 1 1 1 1 2 2 1 1 1 1 1 1 1 1 1 2 2 2 2 2 2 2 2 2 2 2 2 1 1 2 2 2 2
1 1 2 3 2 1 0 0 0 0 0 0 0 0 0 1 1 1 1 1 2 2 1 1 1 1 1 1 1 1 1 2 2 2 2 2 2 2 2 2 2 2 1 1 1 1 2 2 2
1 2 3 3 1 0 0 0 0 0 0 0 0 0 1 1 1 1 1 1 2 2 1 1 1 1 1 1 1 1 2 2 2 2 2 2 1 1 1 1 1 1 1 1 1 1 1 2 2
2 3 3 2 1 0 0 0 0 0 0 0 0 1 1 1 1 1 1 2 2 2 1 1 1 1 1 1 1 1 1 2 2 2 2 2 2 2 2 2 1 1 1 1 1 1 1 1 2
3 3 3 1 0 0 0 0 0 0 0 0 0 1 1 1 1 1 1 2 2 2 1 1 1 1 1 1 1 1 1 1 2 2 2 3 3 2 2 2 2 1 1 1 1 1 1 1 2
4 3 2 1 0 0 0 0 0 0 0 0 1 1 1 1 1 1 1 1 1 1 1 1 1 1 1 1 1 1 1 1 1 2 3 3 4 4 3 2 2 1 1 1 1 1 1 1 2
4 2 1 0 0 0 0 0 0 0 0 0 0 1 1 1 1 1 1 1 1 1 2 2 1 1 1 1 1 1 1 1 1 2 3 4 4 4 4 3 2 1 1 1 1 1 2 2 2
2 2 1 0 0 0 0 0 0 0 0 0 0 1 1 1 0 1 1 1 1 1 1 2 1 1 1 1 1 2 2 2 2 2 3 4 3 3 3 3 2 2 1 1 1 2 2 2 2
1 1 0 0 0 0 0 0 0 0 1 0 0 0 1 1 1 1 1 1 1 1 1 2 2 1 1 1 2 2 2 2 2 2 2 2 2 2 2 2 2 2 2 2 2 3 3 2 2
1 1 0 0 0 0 0 0 0 1 1 1 0 1 1 1 1 1 1 1 1 1 1 1 2 1 1 2 2 2 2 3 3 2 2 1 1 1 1 1 2 2 3 3 3 3 3 2 2
1 0 0 0 0 0 0 0 0 1 1 1 1 1 1 1 1 1 1 1 1 1 2 2 2 1 1 2 2 2 2 3 3 3 2 2 2 1 1 2 2 2 3 3 4 4 4 3 3
0 0 0 0 0 0 0 0 1 1 1 1 1 1 1 1 2 1 1 1 1 2 2 2 2 1 1 2 2 2 2 2 3 3 3 3 2 2 2 2 3 3 3 3 4 4 4 4 4
0 0 1 1 1 1 0 0 1 0 1 1 1 1 1 2 2 1 1 1 1 1 2 2 2 1 2 2 2 2 2 2 3 3 4 3 3 2 2 3 3 3 3 3 3 3 4 4 4
0 1 1 1 1 1 1 1 0 0 0 1 1 1 2 2 2 1 1 1 1 1 1 1 2 2 2 3 3 2 2 3 3 3 3 4 4 3 3 4 4 3 3 3 3 2 3 3 4
1 1 1 1 1 1 1 1 1 0 1 1 1 2 2 2 1 1 1 1 1 1 1 2 2 2 3 3 3 2 2 2 2 2 3 4 4 4 4 4 4 4 3 3 3 2 2 3 3
1 1 1 1 1 1 1 1 1 1 1 1 3 3 3 2 2 1 1 1 1 2 2 2 2 3 3 4 4 3 2 2 2 2 3 4 4 5 5 5 5 4 4 3 3 2 2 2 2
1 1 1 1 1 1 1 1 1 0 1 3 4 4 3 3 2 2 2 1 1 2 2 2 2 3 4 4 4 4 3 3 3 3 4 4 5 6 7 6 5 4 3 3 3 2 2 2 2
0 1 1 1 1 1 1 1 1 1 2 4 5 4 4 3 3 3 2 2 2 2 2 3 3 3 4 4 4 4 4 4 4 5 5 5 6 8 7 6 4 3 3 3 2 2 2 2 2
0 1 2 2 1 1 1 1 1 1 2 4 6 5 4 4 3 3 2 2 2 2 3 3 3 4 4 5 4 4 5 5 5 6 7 7 7 8 6 4 3 3 3 2 2 2 2 2 2
0 1 2 2 1 0 1 1 1 1 2 5 7 6 5 4 4 4 2 1 2 2 3 3 3 4 5 5 4 4 5 5 5 7 9 8 7 6 5 4 3 3 3 3 2 2 2 2 2
0 0 1 2 1 1 1 1 1 2 2 6 8 7 4 4 3 3 2 2 2 3 3 3 3 3 4 4 4 5 5 5 7 9 10 9 6 5 4 3 3 3 3 3 3 3 2 2 2
0 0 1 2 1 1 1 1 2 3 4 6 7 4 3 3 3 2 2 3 3 4 4 4 4 3 3 4 4 4 5 6 8 9 9 8 5 4 4 4 4 4 3 3 3 3 3 3 2
0 0 1 1 1 1 1 1 3 4 6 7 5 3 2 3 2 2 3 4 4 4 4 4 4 3 3 3 3 4 5 7 8 8 8 7 6 6 5 5 5 4 4 3 2 2 3 3 3
0 0 0 0 0 0 0 1 2 4 6 7 5 3 3 3 3 3 4 4 4 5 4 4 4 4 3 3 3 4 5 6 7 7 7 7 7 6 6 6 5 5 4 3 2 2 2 2 2
0 0 0 0 0 0 0 1 2 4 5 5 4 4 5 4 4 4 4 5 5 5 4 4 4 4 4 4 4 5 6 6 6 7 7 7 6 6 5 5 5 4 4 3 3 2 2 2 2
0 0 0 0 0 0 1 2 3 4 5 5 5 6 6 6 5 6 6 6 6 6 5 5 5 5 5 5 5 6 6 6 6 6 6 5 5 5 4 4 3 3 3 3 3 3 3 3 3
0 0 0 0 0 0 1 2 3 4 5 7 8 8 8 7 7 8 7 6 6 6 6 6 6 6 5 5 5 5 5 5 5 5 5 4 4 4 4 3 3 3 4 4 4 3 3 4 4
0 0 0 0 0 0 1 2 3 4 6 8 8 7 7 7 7 7 7 6 5 5 5 5 5 5 4 4 4 4 4 4 4 4 5 5 5 5 4 3 3 4 4 5 5 4 4 4 4
0 0 0 0 0 0 0 1 2 3 4 5 6 7 6 6 5 5 6 5 5 5 4 3 4 3 3 4 4 3 3 3 3 4 4 5 5 4 4 3 3 4 5 6 5 4 4 4 4
0 0 0 0 0 0 0 1 2 3 2 3 5 7 7 5 4 5 6 6 5 4 3 3 3 2 3 3 3 3 3 2 2 3 3 3 4 4 4 4 3 4 5 6 6 5 4 4 4
Wind_Speed
9 9 8 5 4 1 9 12 13 12 12 13 14 14 17 16 11 9 7 9 14 13 12 11 11 10 9 9 8 8 8 8 7 7 7 6 6 7 7 7 7 8 8 8 7 7 7 7 7
8 9 7 4 2 5 10 12 13 12 11 11 14 16 16 16 13 10 8 9 13 13 11 11 10 10 10 9 9 8 8 7 7 7 7 7 7 7 7 7 7 7 7 7 7 7 6 6 6
11 10 5 3 3 9 10 11 11 12 11 11 13 15 12 11 11 9 8 10 12 12 12 11 11 11 10 9 9 8 8 7 7 7 7 7 7 7 7 7 7 7 7 6 6 6 6 6 6
7 5 5 0 10 12 11 9 9 10 11 12 12 12 12 10 8 9 9 10 12 12 13 12 11 11 11 10 9 8 7 7 7 7 6 7 7 7 7 7 7 6 6 6 6 6 5 5 6
6 3 2 5 12 12 10 10 11 11 11 12 14 14 12 11 11 11 9 9 11 12 12 12 12 11 10 10 9 7 7 7 6 6 6 5 5 6 6 6 7 6 6 6 6 5 4 4 5
4 2 0 7 11 11 10 9 11 12 11 12 14 14 11 9 9 10 9 9 11 11 11 11 11 11 10 10 9 8 7 7 6 6 5 5 5 5 5 6 6 6 6 6 6 5 4 4 4
5 2 2 7 11 10 10 10 11 11 11 10 11 13 10 8 8 9 9 9 9 10 10 8 9 9 10 9 9 8 6 6 6 5 4 4 4 5 5 5 5 5 5 4 5 5 4 3 4
4 3 2 7 10 10 10 11 10 11 11 9 9 10 9 8 8 9 9 8 8 8 7 7 7 7 7 8 9 7 6 5 5 4 3 3 4 4 5 5 5 5 4 4 4 4 4 4 4
4 0 4 8 9 9 8 9 11 10 12 12 12 13 12 10 9 9 8 8 8 7 5 5 5 5 4 5 8 8 6 5 4 3 3 2 2 3 3 4 5 5 4 4 5 5 5 4 4
0 3 7 8 8 8 8 7 9 10 10 12 13 13 11 10 9 8 8 8 7 6 5 5 5 4 3 3 5 3 3 3 3 1 1 1 1 1 3 5 5 5 5 5 5 5 5 4 3
2 5 7 8 8 8 9 7 7 10 10 10 11 11 10 9 8 8 8 8 7 6 5 5 5 4 3 2 2 2 2 2 2 1 0 1 0 1 2 2 3 4 4 3 3 4 3 3 2
3 6 7 8 8 7 8 9 10 12 12 13 11 10 9 9 9 8 9 8 7 6 6 5 5 4 3 2 2 2 2 2 2 2 1 1 0 0 1 0 2 2 2 2 2 2 2 2 2
3 5 7 7 7 7 8 10 11 12 13 14 11 9 9 9 9 9 9 8 7 6 6 6 4 3 2 2 1 2 2 2 2 1 1 1 1 1 1 0 0 0 1 1 1 1 1 1 1
3 3 6 6 7 6 8 10 10 11 12 12 10 8 8 9 9 8 8 7 6 5 5 4 4 4 2 1 1 1 1 2 2 2 2 1 1 1 0 0 0 0 0 0 0 1 1 1 0
1 1 5 6 6 6 8 9 9 10 10 10 10 8 7 8 8 7 7 6 6 6 5 3 4 4 2 1 0 1 1 2 2 2 2 1 1 0 0 1 1 0 0 1 1 0 1 1 1
3 4 4 6 7 8 6 7 8 9 10 10 9 9 7 7 7 7 7 7 6 6 4 2 3 4 3 2 1 1 2 2 2 2 1 1 1 1 0 0 0 0 0 0 1 0 1 1 1
6 4 4 5 4 6 5 8 9 8 9 9 9 9 8 7 7 6 6 7 7 6 4 3 3 3 2 2 1 1 1 1 1 1 1 1 1 1 0 1 1 1 0 0 1 1 0 0 0
2 0 3 4 4 4 6 8 9 8 8 9 9 8 8 8 7 6 5 6 7 6 4 3 3 2 1 1 1 1 1 0 1 1 1 1 1 1 1 0 1 1 0 0 0 0 0 0 1
2 0 2 2 2 3 6 7 8 9 7 8 8 9 8 8 8 7 6 6 6 6 5 3 2 2 1 1 0 0 1 1 1 1 2 1 0 1 0 1 0 1 1 0 1 1 1 1 1
2 1 1 2 4 3 5 6 7 7 7 8 8 8 9 9 9 6 6 6 6 6 5 4 3 2 1 1 1 1 0 0 1 1 2 1 0 1 0 0 1 1 1 1 1 1 1 1 1
3 2 2 3 3 4 4 4 5 6 6 7 8 8 9 9 9 8 6 5 6 6 5 4 3 2 1 0 0 1 1 0 0 0 1 1 1 0 1 0 1 1 1 1 1 1 1 1 1
3 3 4 4 4 4 4 3 6 8 8 8 7 7 8 9 9 9 8 6 5 6 6 5 4 2 2 1 1 1 0 0 1 0 1 1 1 0 1 1 1 1 1 1 1 0 1 1 1
3 3 5 5 6 4 5 2 4 9 8 9 9 8 8 9 9 8 8 6 6 6 6 5 4 3 2 1 1 2 2 1 1 1 1 1 0 0 1 1 1 1 1 1 1 1 1 1 1
3 4 6 6 5 5 5 3 2 5 7 9 9 9 8 8 9 8 8 7 6 6 6 6 5 3 2 1 1 1 2 2 3 2 2 1 1 1 1 1 1 1 1 1 1 1 2 2 2
4 5 4 4 5 4 3 1 3 5 7 8 8 8 9 8 8 8 8 7 6 5 5 6 6 3 2 1 1 1 2 2 2 2 2 1 1 1 1 1 1 1 1 1 1 2 2 2 2
6 7 5 4 4 3 2 2 4 7 7 9 8 8 9 8 8 8 8 7 5 5 5 6 6 4 2 2 1 1 1 1 2 2 2 2 2 2 2 1 1 2 2 2 1 2 2 1 2
7 8 7 6 6 2 2 2 4 7 8 9 9 9 7 7 7 7 7 7 6 6 5 6 6 4 2 2 1 1 1 1 2 2 1 2 2 2 2 2 2 2 2 2 1 2 1 1 2
7 8 6 6 4 3 3 3 3 7 7 8 8 8 7 7 6 6 5 6 7 6 6 6 6 4 3 2 1 1 1 1 1 2 2 2 2 2 2 2 2 3 2 2 2 2 1 1 2
7 8 6 6 6 5 3 2 4 4 5 7 8 8 7 6 6 7 6 6 6 7 6 5 5 4 3 2 2 1 1 1 1 1 1 2 2 2 2 2 2 2 2 2 2 2 1 2 2
9 8 7 6 5 5 2 1 3 4 5 6 6 7 6 5 5 6 6 6 5 6 6 5 5 4 4 3 2 1 0 1 1 1 2 2 2 2 2 2 2 3 2 2 2 3 2 2 2
Wind_Direction
195 210 218 240 246 219 59 59 57 55 59 57 52 58 59 52 53 76 88 87 101 106 108 104 97 96 95 97 98 98 97 96 95 94 90 84 82 84 89 96 104 111 116 122 127 132 134 138 140
216 220 227 246 261 68 62 61 64 56 60 71 64 63 63 61 67 87 90 93 101 107 107 103 104 99 98 99 100 100 99 99 98 95 92 87 85 87 87 92 102 111 117 120 122 131 137 141 144
246 245 257 233 69 71 67 64 72 70 58 67 73 64 58 63 69 84 100 102 99 104 106 109 111 106 102 99 98 96 96 96 97 99 97 94 90 87 86 91 101 110 116 117 122 131 139 145 153
248 226 244 255 73 74 76 75 75 74 67 66 73 73 67 64 77 95 102 102 106 110 111 115 116 110 107 103 100 98 96 95 96 99 100 99 96 93 92 96 101 107 115 121 124 129 137 152 164
237 265 248 80 79 77 72 71 74 72 69 72 81 85 79 75 89 102 105 101 104 107 113 119 120 116 113 110 107 104 106 103 102 99 100 103 104 102 101 104 105 109 117 124 125 127 135 149 161
259 249 331 84 83 80 73 66 76 77 76 78 87 89 83 91 94 96 95 98 101 104 110 118 127 126 125 121 115 112 109 105 100 100 109 112 110 111 113 112 107 108 119 128 129 131 139 149 161
258 284 97 99 94 83 78 72 71 78 71 67 85 91 93 96 97 100 96 93 95 104 110 125 135 137 137 132 127 125 124 122 116 111 119 128 123 128 129 121 113 113 117 129 136 140 150 161 173
264 290 65 89 94 89 85 80 76 77 75 65 69 89 101 107 105 101 99 94 94 98 108 126 134 139 145 144 142 142 136 134 132 136 143 143 143 144 149 138 131 132 137 143 151 158 169 182 198
279 339 56 63 84 93 93 92 94 86 83 75 73 89 107 115 111 107 98 87 79 81 87 93 101 113 128 131 141 156 155 154 149 159 172 164 179 176 164 141 153 160 164 167 171 181 196 200 211
278 60 68 67 80 93 95 92 104 101 90 88 87 93 107 111 108 102 97 96 90 87 86 81 79 83 95 118 129 142 144 158 161 150 177 200 198 152 142 152 168 178 186 185 189 195 204 212 205
117 94 81 80 84 94 102 95 88 95 95 100 107 111 111 109 106 100 93 89 87 83 75 75 80 75 67 71 108 106 126 147 142 130 206 143 130 131 136 154 167 190 194 199 187 197 213 204 183
59 77 84 87 87 87 92 93 81 78 91 102 106 111 110 105 98 97 99 96 91 82 80 68 73 66 52 46 59 102 103 104 96 119 61 71 85 45 87 179 175 188 182 188 184 199 199 196 177
91 97 95 96 96 91 92 87 87 90 97 104 112 116 113 108 104 97 96 95 87 84 83 86 80 82 80 64 15 71 84 81 92 80 72 35 58 63 49 12 4 297 158 168 193 162 138 206 200
76 99 114 116 109 113 109 100 97 102 112 116 122 117 108 100 99 99 99 100 97 87 83 89 93 90 80 88 80 58 105 114 90 85 69 31 57 94 61 22 302 295 124 85 143 213 171 198 204
90 139 147 142 144 130 111 99 106 119 125 126 126 118 112 107 109 109 107 104 102 98 84 87 105 101 99 70 100 93 96 100 95 95 81 51 66 82 188 198 212 234 170 161 178 259 206 205 198
231 218 166 147 154 142 147 121 134 146 142 136 133 131 126 117 113 115 114 110 101 98 94 74 72 95 111 105 54 37 60 70 89 95 94 83 62 11 323 253 188 100 158 167 166 208 233 199 160
234 212 141 139 155 147 153 129 144 154 148 142 144 143 138 136 128 124 124 119 109 103 103 89 65 73 105 123 124 112 82 76 71 82 65 73 76 39 333 32 356 270 260 331 280 105 301 229 187
244 64 133 134 143 138 121 124 146 156 154 154 153 150 148 146 137 134 132 127 122 118 112 103 94 70 61 99 117 107 86 130 126 108 90 66 10 39 11 37 327 332 349 355 354 58 265 250 252
246 81 110 112 142 140 128 141 156 160 164 158 157 156 154 149 140 142 145 137 130 127 126 116 98 92 77 50 17 179 159 189 145 132 103 106 76 36 12 331 322 299 291 311 325 350 286 260 213
265 124 152 172 181 176 140 141 160 161 169 164 165 161 157 149 144 147 155 150 143 137 133 127 117 89 80 113 231 244 228 203 137 87 117 130 69 359 308 318 308 306 323 305 285 272 260 272 246
259 235 214 223 202 195 157 145 160 163 171 167 167 162 155 153 151 156 160 154 146 141 135 129 121 113 90 350 311 297 147 265 63 119 136 133 85 53 338 354 325 313 296 257 244 223 233 256 273
253 245 229 225 236 225 217 184 180 173 175 169 165 161 160 159 156 160 159 152 143 135 130 121 115 102 69 36 5 331 37 30 47 29 72 79 86 259 275 273 267 290 303 301 286 192 255 245 274
266 271 265 247 260 262 226 208 174 169 172 168 167 167 164 163 160 157 150 145 144 141 136 126 114 106 89 52 10 340 352 358 13 18 42 26 292 252 281 276 277 279 290 294 293 313 286 267 271
284 295 278 257 258 256 240 230 164 159 165 165 163 164 163 158 154 148 143 143 149 145 140 130 123 114 110 90 41 12 353 358 351 344 347 326 298 269 275 267 281 281 269 273 260 257 247 252 260
243 265 274 259 246 246 219 177 130 145 153 151 147 150 155 153 150 149 148 146 149 142 132 127 126 130 134 126 81 38 351 340 340 331 331 323 331 335 354 343 318 301 282 265 255 247 248 246 251
236 245 256 278 282 287 323 103 131 127 125 131 139 145 149 146 145 146 145 146 148 143 132 125 129 137 140 127 94 64 6 344 347 348 340 346 338 343 5 352 327 318 312 303 295 277 260 255 255
255 261 276 285 285 286 300 131 135 133 138 135 137 135 140 146 146 147 149 155 153 143 132 128 127 130 137 131 124 102 46 10 347 346 335 336 345 346 359 352 345 328 314 319 307 288 278 276 260
256 275 293 291 307 298 271 229 158 152 144 141 142 142 146 147 145 146 155 154 144 141 133 127 128 137 142 135 172 109 73 10 340 347 358 356 351 348 337 343 344 339 320 301 287 286 287 276 281
246 252 268 291 300 292 289 326 114 149 153 148 144 145 152 154 154 149 153 146 141 141 138 138 137 145 146 138 123 78 83 4 333 338 348 344 336 335 328 339 336 326 319 321 313 301 311 294 294
256 258 256 260 274 290 281 258 154 154 154 145 140 140 141 141 138 138 140 136 141 141 142 143 144 153 157 154 140 133 95 33 339 342 334 336 333 324 319 328 322 311 320 324 321 311 311 297 281